User: anonymous   Login
Location: Newark
(41.9000°N, 12.4833°E)
Time: 20:58:31
(UTC+00:00)
Language:

nSIGHT-1 - Orbit

View from above orbital plane
View from above orbital plane
View from above satellite
View from above satellite

Ground track
Ground track

The orbit data is extracted from the following two-line orbital elements,

1 42726U 98067MF  19146.23709335  .00014892  00000-0  12328-3 0  9997
2 42726  51.6367  68.6070 0006005  86.6096 273.5588 15.70492284114134
Epoch (UTC): 26 May 2019 05:41:24
Eccentricity: 0.0006005
inclination: 51.6367°
perigee height: 353 km
apogee height: 361 km
right ascension of ascending node: 68.6070°
argument of perigee: 86.6096°
revolutions per day: 15.70492284
mean anomaly at epoch: 273.5588°
orbit number at epoch: 11413

The dashed part of the orbit path shows where the satellite is in the earth's shadow,  

DLR